Tracking 18980 objects as of 21-Feb-2018
HD Live streaming from Space Station
objects crossing your sky now

BLITS DEB

Track BLITS DEB now!
10-day predictions


NORAD ID: 39119
Int'l Code: 2009-049J
Perigee: 822.6 km
Apogee: 830.1 km
Inclination: 98.4 °
Period: 101.3 minutes
Semi major axis: 7197 km
RCS: 0.0018 m2 (small)
Launch date: September 17, 2009
Source: Commonwealth of Independent States (former USSR) (CIS)
Launch site: TYURATAM MISSILE AND SPACE COMPLEX (TTMTR)

Note: This is SATELLITE DEBRIS
aabbcc
Your satellite tracking list
Your tracking list is empty




NASA's NSSDC Master Catalog

Two Line Element Set (TLE):
1 39119U 09049J   18051.49157790 -.00000016  00000-0  11490-4 0  9999
2 39119  98.4118  63.1985 0005261 124.0097 236.1581 14.21820791263085
Source of the keplerian elements: AFSPC